Regional Weather Roundup
Issued by NWS

Home | Current Version | Previous Version | Graphics & Text | Print | Product List | Glossary On
Versions: 1 2 3 4 5 6 7 8 9 10 11 12 13 14 15 16 17 18 19 20 21 22 23 24 25 26 27 28 29 30 31 32 33 34 35 36 37 38 39 40 41 42 43 44 45 46 47 48 49 50
000
ASUS44 KMEG 061410
RWRTN
TENNESSEE HOURLY STATE WEATHER ROUNDUP
NATIONAL WEATHER SERVICE MEMPHIS TN
900 AM CDT WED MAY 06 2015

TNZ002-004-019-021-049-052-054-088>092-061500-
WEST TENNESSEE

CITY           SKY/WX    TMP DP  RH WIND       PRES   REMARKS
MEMPHIS INTL   MOSUNNY   74  58  57 S6        30.17R
NWS MEMPHIS      N/A     74 N/A N/A MISG        N/A
JACKSON        SUNNY     73  58  59 S6        30.19R
DYERSBURG      SUNNY     72  50  46 S6        30.19R
PARIS          SUNNY     70  55  60 S6        30.20S
LEXINGTON      SUNNY     70  57  64 S5        30.19S
$$

TNZ008-025-027-028-033-062-065-066-061500-
NORTH MIDDLE TENNESSEE

CITY           SKY/WX    TMP DP  RH WIND       PRES   REMARKS
NASHVILLE      PTSUNNY   72  58  61 CALM      30.22S
CLARKSVILLE    PTSUNNY   68  59  73 CALM      30.21S
SMYRNA         MOSUNNY   69  60  73 CALM      30.23S
COOKEVILLE     MOSUNNY   75  57  53 SW5       30.23S
CROSSVILLE     SUNNY     72  51  47 VRB6      30.27S
$$

TNZ061-075-076-078-094-096-097-061500-
SOUTH MIDDLE TENNESSEE

CITY           SKY/WX    TMP DP  RH WIND       PRES   REMARKS
FAYETTEVILLE     N/A     72  54  53 S5        30.23S
TULLAHOMA      SUNNY     72  52  49 CALM      30.24S
WINCHESTER     SUNNY     73  54  49 CALM      30.23S
MCMINNVILLE    MOSUNNY   72  61  68 CALM      30.24S
COLUMBIA       SUNNY     72  59  64 CALM      30.20S
SHELBYVILLE    SUNNY     75  59  57 S6        30.23S
$$

TNZ017-018-042-046-047-061500-
NORTHEAST TENNESSEE

CITY           SKY/WX    TMP DP  RH WIND       PRES   REMARKS
TRI CITIES     SUNNY     69  58  67 CALM      30.27S
$$

TNZ012-013-036-069-073-074-061500-
CENTRAL EAST TENNESSEE

CITY           SKY/WX    TMP DP  RH WIND       PRES   REMARKS
KNOXVILLE      MOSUNNY   71  58  63 CALM      30.23F
OAK RIDGE      SUNNY     71  58  63 CALM      30.25F
GATLINBURG     SUNNY     68  55  64 CALM      30.24F
MORRISTOWN     SUNNY     73  55  53 CALM      30.26F
$$

TNZ083-085-099-061500-
SOUTHEAST TENNESSEE

CITY           SKY/WX    TMP DP  RH WIND       PRES   REMARKS
CHATTANOOGA    SUNNY     70  56  61 CALM      30.24F
$$

SKY/WX REPORTED AS FAIR MEANS FEW OR NO CLOUDS BELOW
12 THOUSAND FEET.




USA.gov is the U.S. government's official web portal to all federal, state and local government web resources and services.